Location: Delia
(51.6321°N, 112.3740°W)
Time: 21:09:09
(UTC+00:00)

Envisat - Pass Details

Date: 05 December 2021
Orbit: 764 x 766 km, 98.2° (Epoch: 26 January)

Event Time Altitude Azimuth Distance (km) Brightness Sun altitude
Rises 01:12:04 0° 221° (SW) 3,225 7.2 -16.2°
Reaches altitude 10° 01:15:46 10° 249° (WSW) 2,306 6.8 -16.7°
Maximum altitude 01:18:01 13° 276° (W) 2,114 6.3 -17.1°
Drops below altitude 10° 01:20:17 10° 302° (WNW) 2,314 6.1 -17.4°
Sets 01:24:02 0° 331° (NNW) 3,247 6.5 -18.0°
